Regional Weather Roundup
Issued by NWS

Home | Current Version | Previous Version | Graphics & Text | Print | Product List | Glossary On
Versions: 1 2 3 4 5 6 7 8 9 10 11 12 13 14 15 16 17 18 19 20 21 22 23 24 25 26 27 28 29 30 31 32 33 34 35 36 37 38 39 40 41 42 43 44 45 46 47 48 49 50
000
ASUS45 KPSR 262310
RWRAZ

ARIZONA REGIONAL HOURLY WEATHER ROUNDUP
NATIONAL WEATHER SERVICE PHOENIX AZ
400 PM MST THU MAR 26 2015

NOTE: FAIR INDICATES FEW OR NO CLOUDS BELOW 12,000 FEET WITH NO
SIGNIFICANT WEATHER AND/OR OBSTRUCTIONS TO VISIBILITY.

AZZ001>003-036-270000-
NORTHWEST ARIZONA

CITY           SKY/WX    TMP DP  RH WIND       PRES   REMARKS
BULLHEAD CITY  SUNNY     86  18   8 N15       30.05F
KINGMAN        SUNNY     78  19  11 N7        30.17F
$$

AZZ004>008-015-016-018-270000-
NORTH CENTRAL ARIZONA

CITY           SKY/WX    TMP DP  RH WIND       PRES   REMARKS
GRAND CANYON   SUNNY     63  14  15 VRB5      30.32S
WILLIAMS       SUNNY     66  16  14 W6G16     30.36S
PRESCOTT       SUNNY     72  11   9 N5        30.21F
FLAGSTAFF      MOSUNNY   61  11  14 NE8       30.32S
PAYSON         MOSUNNY   72  16  12 VRB7      30.22F
PAGE           SUNNY     67  16  14 VRB3      30.25F
$$

AZZ009>014-017-270000-
NORTHEAST ARIZONA

CITY           SKY/WX    TMP DP  RH WIND       PRES   REMARKS
WINSLOW        SUNNY     69   9   9 VRB5      30.25F
SAINT JOHNS    SUNNY     65   7  10 NW10G17   30.24F
WINDOW ROCK    SUNNY     67   9  10 N7G20     30.25S
SHOW LOW       SUNNY     63   9  12 N9        30.30S
$$

AZZ023-270000-
GREATER PHOENIX AREA

CITY           SKY/WX    TMP DP  RH WIND       PRES   REMARKS
PHOENIX        MOSUNNY   88  16   7 VRB6      30.00F
BUCKEYE        SUNNY     86  21   9 SW3       30.02F
GLENDALE       MOSUNNY   88  19   8 VRB5      30.02F
LUKE AFB       SUNNY     87  23   9 CALM      30.00F
DEER VALLEY    SUNNY     84  15   7 VRB3      30.02F
SCOTTSDALE     SUNNY     87  13   6 W6        30.03F
MESA-FALCON    PTSUNNY   86  10   6 W7        30.02F
MESA-GATEWAY   PTSUNNY   86  19   8 N8        30.04F
CHANDLER       MOSUNNY   86  16   7 VRB7      30.02F
$$

AZZ027-028-270000-
SOUTHWEST MARICOPA COUNTY AND PINAL COUNTY

CITY           SKY/WX    TMP DP  RH WIND       PRES   REMARKS
CASA GRANDE    SUNNY     86  25  10 NW5       30.01F
$$

AZZ503-504-507>509-270000-
SOUTHEAST ARIZONA

CITY           SKY/WX    TMP DP  RH WIND       PRES   REMARKS
TUCSON         SUNNY     85  21   9 VRB5      30.07F
RYAN FIELD       N/A     84  28  13 W10       30.06F
NOGALES        SUNNY     83  22  10 N8        30.09F
SIERRA VISTA   SUNNY     75  19  12 N13       30.16F
DOUGLAS        SUNNY     75  25  15 NE5       30.15F
SAFFORD        SUNNY     78  18  10 S8        30.11F
$$

AZZ020-021-025-026-031-270000-
SOUTHWEST ARIZONA

CITY           SKY/WX    TMP DP  RH WIND       PRES   REMARKS
YUMA           MOSUNNY   94  24   8 NE9G18    29.98F
$$

CAZ031-033-041-043-047-048-061-270000-
SOUTHERN CALIFORNIA

CITY           SKY/WX    TMP DP  RH WIND       PRES   REMARKS
DOWNTOWN L.A.  SUNNY     87  41  19 W6        29.99F
L.A. AIRPORT   SUNNY     77  49  37 W10       30.01F
SAN DIEGO      SUNNY     82  42  24 NW12      30.00F
BURBANK        SUNNY     91  30  11 S12       30.01F
ONTARIO        SUNNY     91  26   9 W7        30.01F
RIVERSIDE      SUNNY     92  23   8 VRB3      30.01F
PALM SPRINGS   SUNNY     93  21   7 CALM      30.01F
EL CENTRO NAS  MOSUNNY   91  20   7 NE5       29.99F
IMPERIAL       SUNNY     92  22   8 N7        29.99F
BLYTHE         SUNNY     87  26  11 SE9       30.02F
NEEDLES        SUNNY     89  14   6 E8        30.05F
$$

NVZ020-UTZ003-270000-
SOUTHERN NEVADA-UTAH

CITY           SKY/WX    TMP DP  RH WIND       PRES   REMARKS
LAS VEGAS      MOSUNNY   80  22  11 N6        30.11F
SALT LAKE CITY PTSUNNY   59  25  27 VRB3      30.34F
$$

NMZ009-TXZ055-270000-
NEW MEXICO-WEST TEXAS

CITY           SKY/WX    TMP DP  RH WIND       PRES   REMARKS
ALBUQUERQUE    MOSUNNY   62  18  18 SW6       30.22F
EL PASO        SUNNY     67  25  20 VRB3      30.19F
$$


........................KEY........................
SKY/WX - SKY CONDITION/WEATHER
TMP    - TEMPERATURE IN FAHRENHEIT
DP     - DEW POINT IN FAHRENHEIT
RH     - RELATIVE HUMIDITY IN PERCENT
WIND   - DIRECTION AND SPEED IN MILES PER HOUR (MPH)
VRB    - VARIABLE WIND DIRECTION
PRES   - MEAN SEA LEVEL PRESSURE IN INCHES OF MERCURY
         F - FALLING PRESSURE   R - RISING PRESSURE
         S - STEADY PRESSURE
VSB    - VISIBILITY IN MILES
HX     - HEAT INDEX IN FAHRENHEIT
WCI    - WIND CHILL INDEX IN FAHRENHEIT
TC     - TEMPERATURE IN CELSIUS WHICH IS ALSO KNOWN AS
         TEMPERATURE IN CENTIGRADE
AFB    - AIR FORCE BASE
         LUKE AFB IS LUKE AIR FORCE BASE
         DAVIS-MONTHAN IS DAVIS-MONTHAN AIR FORCE BASE
NAS    - NAVAL AIR STATION
         EL CENTRO NAS IS EL CENTRO NAVAL AIR STATION
N/A    - NOT AVAILABLE



USA.gov is the U.S. government's official web portal to all federal, state and local government web resources and services.